GEFSSE_con_cape1000_270.txt.gz
Probability
48 74 94 94 90 94 94 90 90 90 90 90 87 87 87 84 84 84 81 84 84 84 84 77 84 84 87 81 81 77 77 81 77 74 68 61 68 74 74 68 48 45 58
52 74 94 94 94 94 90 90 84 87 87 87 87 87 87 84 84 84 81 81 84 81 81 74 81 84 81 87 87 81 74 77 68 61 58 45 55 74 74 74 45 42 61
61 68 94 94 90 94 90 90 87 84 84 84 87 84 81 77 81 81 77 74 77 74 74 71 77 74 74 74 77 77 71 65 61 55 48 26 42 58 77 71 68 65 61
55 61 74 94 94 87 87 90 84 84 81 84 81 81 77 74 74 71 71 68 68 68 68 68 71 71 74 74 68 61 55 52 55 45 16 16 23 58 68 77 71 65 55
55 58 77 94 90 87 84 84 84 84 81 81 77 74 77 68 71 68 65 65 68 68 58 61 61 68 58 61 61 58 55 45 39 19 10 3 3 65 68 65 68 61 58
52 61 84 87 87 87 84 84 84 84 81 71 74 77 71 68 68 71 68 65 58 58 58 65 55 58 61 55 61 52 42 42 19 6 6 3 10 52 68 68 68 61 58
52 61 77 84 84 81 84 84 84 84 81 77 71 77 74 71 71 68 68 68 65 61 61 52 48 52 55 52 55 52 45 39 6 0 3 3 19 58 68 65 65 61 58
39 61 77 81 77 77 77 81 81 77 77 74 68 68 65 65 61 61 65 65 61 61 52 45 55 55 55 52 52 45 48 26 6 0 3 0 32 68 65 65 61 61 58
48 52 71 68 74 77 77 77 74 77 77 71 71 61 61 65 61 61 61 65 65 55 48 48 42 48 52 52 45 48 39 35 10 6 3 0 32 55 58 55 58 55 52
48 58 65 65 65 68 68 74 71 74 71 71 71 68 65 65 58 61 65 68 61 45 42 45 45 45 48 48 45 45 45 32 10 6 0 10 35 48 52 52 52 55 45
48 52 52 58 58 55 58 68 68 65 65 65 61 65 61 45 42 45 55 61 48 42 39 42 42 45 48 52 42 45 35 13 6 3 0 19 35 48 55 58 61 55 48
48 42 45 48 52 52 52 58 55 58 55 52 45 45 42 35 32 32 48 52 39 39 42 42 42 45 35 29 32 32 16 13 3 0 6 35 48 55 55 48 52 55 52
42 42 32 45 42 32 32 39 45 45 42 32 35 35 29 29 29 29 26 29 26 29 29 32 32 26 26 19 19 13 10 10 0 3 6 35 52 48 39 35 39 45 45
29 32 32 32 32 29 32 29 29 29 23 29 32 32 23 23 13 16 19 16 16 13 10 10 10 13 10 13 16 13 10 10 3 0 0 29 39 42 32 35 32 32 39
26 23 29 29 26 26 23 19 16 16 26 26 26 23 19 16 16 10 10 6 6 6 10 6 10 10 6 13 10 10 3 3 0 0 3 26 35 32 39 35 32 29 39
19 23 29 19 16 16 16 13 13 13 13 16 19 19 16 13 13 10 10 3 0 10 10 6 3 6 6 10 10 10 3 6 3 3 0 10 23 32 32 32 35 26 29
19 16 13 19 16 13 13 13 16 16 13 16 16 16 19 13 13 10 6 6 6 10 10 10 10 6 10 10 6 3 3 0 0 0 0 3 10 23 29 29 32 29 32
19 16 13 19 13 13 13 13 10 13 10 10 13 19 19 16 13 13 6 6 10 10 6 6 6 3 3 3 3 0 6 3 3 3 3 3 3 10 16 23 29 32 32
19 13 13 19 13 16 19 23 16 13 13 6 10 16 23 13 13 6 6 6 6 3 6 6 3 3 0 3 0 0 0 0 0 3 3 0 3 6 6 13 19 26 26
13 19 19 19 16 16 19 19 23 13 10 10 6 3 16 16 13 10 10 10 3 3 6 3 3 0 0 0 0 0 0 0 0 0 0 0 0 3 0 0 3 13 26
10 13 13 16 13 19 16 16 19 13 13 13 16 16 10 13 10 10 10 6 0 0 3 3 3 0 0 0 0 0 0 0 0 0 0 0 0 0 0 0 0 0 3
13 16 13 19 13 13 13 10 13 13 13 16 16 16 13 10 10 10 10 10 6 0 0 0 0 0 0 0 0 0 0 0 0 0 0 0 0 0 0 0 0 0 0
10 10 13 10 10 10 10 10 10 10 10 10 10 10 10 6 6 10 10 10 6 3 0 0 0 3 0 0 0 0 0 0 0 0 0 0 0 0 0 0 0 0 0
10 13 10 6 10 10 10 10 10 10 10 10 10 10 10 6 6 6 3 3 3 3 0 3 3 0 0 0 0 0 0 0 0 0 0 0 0 0 0 0 0 0 0
13 6 6 6 10 10 10 10 10 10 10 10 10 10 10 10 6 6 3 3 3 3 3 3 3 3 3 0 0 0 0 0 0 0 0 0 0 0 0 0 0 0 0
10 10 10 10 10 10 10 13 13 10 10 10 10 10 10 10 10 6 3 3 3 3 3 3 3 3 3 3 0 0 0 0 0 0 0 0 0 0 0 0 0 0 0

GEFSSE_con_cape1000_276.txt.gz
Probability
35 68 87 90 90 90 90 94 90 90 90 90 87 84 84 87 87 87 84 87 87 87 81 77 77 74 77 81 77 77 84 77 74 68 61 48 58 65 65 68 58 55 61
39 68 87 90 90 90 90 90 94 90 90 90 87 84 84 84 87 84 84 84 87 87 77 77 81 77 71 71 71 74 74 81 77 74 68 52 68 65 68 65 65 61 68
48 68 84 87 90 90 90 90 94 87 90 90 87 77 77 77 81 84 77 81 77 74 74 77 77 71 74 71 71 74 71 71 65 68 61 42 42 58 61 58 58 68 68
58 61 71 87 87 90 87 90 84 81 84 87 84 81 77 74 74 71 74 74 77 71 71 74 68 68 74 77 71 71 65 52 45 42 29 29 26 58 77 68 68 55 61
55 55 74 84 84 84 87 84 81 77 77 81 81 81 74 74 74 68 68 65 68 68 61 61 61 58 68 68 68 61 45 42 42 26 13 16 19 58 58 68 68 65 52
55 55 74 90 77 77 74 77 81 81 77 77 74 81 74 68 71 71 68 58 58 58 61 58 55 61 61 58 65 58 48 45 19 6 10 10 23 52 65 58 55 58 61
52 55 77 87 84 77 77 77 77 77 74 74 74 74 68 68 71 71 65 52 58 65 55 55 61 65 58 58 58 65 52 26 0 3 6 13 26 48 55 71 55 58 68
45 52 68 84 81 74 77 74 74 71 71 71 71 68 65 68 71 61 58 58 58 58 58 61 61 61 61 58 58 52 42 29 6 3 6 13 32 48 58 65 71 68 58
48 45 55 71 74 77 77 74 71 71 65 68 68 71 65 65 65 61 58 61 55 55 58 61 58 55 52 58 48 39 39 32 3 6 10 13 32 42 55 48 55 52 58
52 48 48 55 58 71 74 74 71 68 68 68 68 61 58 55 55 58 58 58 58 61 55 45 58 42 48 52 42 45 39 23 6 3 6 16 32 42 48 45 48 45 52
39 35 42 42 52 55 55 68 68 68 65 65 61 65 55 52 52 48 52 55 55 55 52 48 52 45 45 42 45 45 32 16 6 3 10 23 32 42 45 52 48 48 42
29 29 35 35 39 39 55 48 52 58 52 48 48 45 45 39 42 48 42 48 45 42 48 45 48 45 39 29 26 29 19 10 13 10 16 26 35 35 45 55 32 29 39
26 26 29 35 35 26 39 39 42 42 42 39 35 35 35 39 35 32 32 32 29 32 29 32 23 23 16 10 13 19 10 6 10 10 13 26 35 35 42 35 35 29 29
16 26 26 35 26 23 19 23 26 32 32 29 23 32 29 29 26 16 16 19 19 23 16 13 13 13 6 13 10 13 10 10 3 3 13 29 26 26 29 29 35 32 29
19 19 19 19 19 16 16 19 26 26 23 23 26 26 23 19 16 10 10 6 6 10 10 10 10 10 6 10 10 10 13 10 6 6 6 19 29 23 29 29 32 29 29
16 16 19 16 13 16 16 16 16 19 23 19 23 19 19 13 13 10 6 3 6 6 6 6 6 6 6 10 10 10 10 6 10 6 3 16 19 23 29 29 26 29 26
13 10 13 13 10 10 16 16 13 10 13 16 16 16 16 10 6 10 3 3 6 6 0 3 3 6 10 6 10 10 10 6 10 6 6 10 10 13 26 29 32 26 26
13 10 16 19 10 10 13 13 10 10 13 13 10 10 10 10 6 3 3 3 3 3 0 0 0 3 6 6 6 6 6 6 6 6 6 6 6 6 10 19 26 29 26
16 13 13 13 10 13 16 6 10 10 10 10 10 10 10 13 6 3 3 3 3 0 0 0 0 0 3 3 3 3 3 3 0 3 6 6 6 3 3 6 23 29 23
6 10 10 13 10 10 13 13 10 10 10 6 6 10 10 3 0 0 0 0 0 0 0 0 0 0 0 0 3 3 3 0 0 3 3 3 3 3 0 3 10 13 23
6 6 6 6 3 6 6 10 6 3 6 6 6 10 6 0 0 0 0 0 0 0 0 0 0 0 0 0 0 0 0 0 0 0 0 0 0 0 0 0 0 3 3
6 6 3 3 0 3 6 6 0 0 0 0 0 0 3 3 0 0 0 0 0 0 0 0 0 0 0 0 0 0 0 0 0 0 0 0 0 0 0 0 0 0 0
6 3 3 3 0 0 0 0 3 3 3 3 0 0 0 0 0 0 3 0 0 0 0 0 0 0 0 0 0 0 0 0 0 0 0 0 0 0 0 0 0 0 0
3 3 3 3 0 3 3 3 3 3 3 3 3 3 0 0 0 0 3 0 0 0 0 0 0 0 0 0 0 0 0 0 0 0 0 0 0 0 0 0 0 0 0
6 3 3 0 3 3 3 3 3 3 0 0 0 3 0 0 0 0 0 0 0 0 0 0 0 0 0 0 0 0 0 0 0 0 0 0 0 0 0 0 0 0 0
6 6 6 6 6 6 6 3 3 3 3 3 3 3 3 0 0 0 0 0 0 0 0 0 0 0 0 0 0 0 0 0 0 0 0 0 0 0 0 0 0 0 0

GEFSSE_con_cape1000_282.txt.gz
Probability
26 48 81 84 84 84 87 97 97 94 90 94 87 87 87 90 90 87 87 87 87 84 84 74 74 71 74 74 71 71 74 81 65 58 61 68 61 61 61 58 55 39 65
29 61 87 87 84 90 87 90 94 87 90 90 87 84 87 87 87 87 87 87 87 84 74 71 68 74 71 74 77 74 74 77 65 65 65 58 48 55 55 55 55 58 71
48 65 74 90 84 84 90 87 87 87 87 90 87 81 77 81 84 81 84 84 77 77 74 77 74 71 68 71 68 68 68 61 61 68 58 29 32 52 65 58 48 58 65
55 68 74 87 90 87 84 84 84 90 87 87 77 77 77 77 77 81 81 84 74 74 71 65 71 61 68 68 65 65 61 58 55 52 26 19 23 48 55 58 58 61 68
58 71 84 84 90 87 90 84 84 81 84 81 74 77 74 74 74 81 77 81 74 74 71 68 61 58 55 58 58 55 52 42 45 32 16 26 45 61 58 58 48 45 52
61 65 81 84 81 84 81 81 81 71 71 74 77 71 68 74 71 65 68 68 68 65 65 61 61 55 58 58 55 52 42 42 35 10 19 16 35 48 52 52 48 48 55
48 58 74 87 87 84 81 77 71 74 71 68 68 68 71 74 65 68 61 58 58 58 55 61 58 55 58 55 48 55 48 39 23 13 13 23 29 45 52 48 55 52 52
48 55 74 84 84 84 84 77 74 71 71 65 65 61 55 55 58 55 55 55 52 55 55 52 48 52 58 58 58 52 42 29 10 10 13 19 42 42 39 55 52 45 48
45 55 65 65 71 81 77 74 74 74 71 68 61 58 55 55 58 58 55 58 52 55 58 58 52 58 58 55 52 42 39 35 10 6 6 19 39 45 45 45 48 45 48
58 61 65 68 65 58 68 74 74 65 68 68 65 58 58 55 55 52 52 52 48 48 55 55 58 52 58 48 42 42 42 35 6 13 10 13 45 32 29 45 42 42 35
61 65 58 55 58 52 58 58 61 65 68 65 65 58 61 48 39 52 45 48 48 48 52 45 52 55 45 39 35 32 26 10 6 19 23 32 39 29 35 35 39 35 39
55 48 52 58 55 58 55 65 61 58 61 58 61 52 45 48 52 39 45 48 48 48 45 42 45 52 35 26 23 23 16 13 10 13 23 42 32 39 42 45 45 23 26
52 48 45 52 65 55 65 68 58 58 58 52 48 42 58 52 48 48 45 39 45 32 35 35 32 32 29 32 26 16 13 13 19 16 19 32 32 26 29 35 29 23 23
45 45 42 45 55 61 61 58 58 61 61 55 55 52 52 52 52 48 48 39 39 35 35 29 32 26 29 23 23 19 23 19 26 26 26 29 29 32 26 32 32 29 19
39 45 48 58 65 61 71 71 58 61 52 45 55 48 58 48 48 45 45 45 39 35 32 29 26 29 26 19 19 16 16 26 23 26 29 32 23 26 23 16 19 19 23
48 48 52 52 55 61 65 65 58 55 58 45 45 45 52 52 52 52 45 35 26 32 29 29 23 23 26 23 16 16 26 26 32 32 29 26 26 29 23 13 23 23 19
55 55 52 52 58 58 58 55 48 52 52 39 42 42 52 48 55 45 29 32 19 32 39 29 23 19 19 13 13 26 26 29 32 32 29 19 19 23 23 19 23 16 19
48 45 48 45 42 55 58 55 48 45 42 42 42 42 39 48 39 45 32 29 26 29 26 26 23 23 13 16 19 19 19 26 23 29 26 16 13 16 19 16 19 13 19
48 45 42 35 45 45 52 55 48 48 45 42 42 39 35 35 32 32 32 32 26 23 26 23 16 23 16 19 16 16 19 16 23 10 13 19 19 19 13 16 16 19 16
52 48 45 39 42 42 45 48 39 35 32 39 39 35 39 39 26 29 26 32 23 19 29 26 23 29 19 23 10 10 13 13 13 10 13 13 23 19 10 3 16 13 13
52 45 45 45 42 39 45 39 32 26 29 26 16 29 39 29 29 32 23 32 26 26 26 19 19 26 19 13 13 13 13 16 13 13 13 13 10 10 6 10 13 13 10
48 45 45 42 39 42 42 42 29 26 26 23 23 26 26 23 26 23 29 19 26 29 23 23 26 10 6 16 10 16 13 16 16 6 10 6 6 3 6 10 6 10 6
39 42 29 42 39 39 39 42 29 23 19 16 19 23 26 23 19 26 23 23 29 16 19 23 26 19 13 10 6 10 10 6 13 6 10 6 13 13 10 10 6 10 13
42 39 45 48 39 35 35 39 29 29 16 19 16 23 23 23 19 19 19 26 29 23 19 23 19 19 16 13 13 19 13 19 19 6 6 6 10 10 10 10 10 10 10
35 26 35 35 32 32 35 39 42 26 23 23 19 19 19 23 23 23 23 26 26 23 19 16 26 19 16 13 10 13 6 13 13 16 6 13 13 10 13 13 6 6 6
32 26 29 35 32 29 29 35 39 29 29 29 23 19 16 16 23 23 26 29 23 23 23 19 23 16 16 16 13 6 10 10 13 13 10 10 13 13 13 10 6 13 6

GEFSSE_con_cape1000_288.txt.gz
Probability
45 55 90 90 87 84 87 90 90 87 87 87 84 87 90 87 84 87 84 87 84 77 71 71 71 68 65 68 65 61 68 61 61 52 55 58 48 52 52 52 58 48 71
58 61 90 90 90 87 84 87 84 87 87 87 87 87 87 87 87 87 81 84 77 74 74 71 65 65 68 68 71 58 55 61 58 58 52 48 58 58 58 58 58 58 71
58 65 90 90 90 87 84 77 84 84 87 87 87 84 84 87 87 84 77 74 74 71 74 71 65 61 61 68 61 58 55 52 65 65 55 35 45 61 71 58 55 68 65
71 68 74 94 90 87 90 77 81 81 84 81 81 71 65 74 84 81 74 68 61 65 58 61 55 55 58 55 48 48 42 48 48 52 39 29 29 58 68 58 55 61 65
81 74 87 94 94 94 84 81 77 74 74 74 71 71 68 68 74 74 68 65 65 68 65 65 58 48 42 42 35 35 26 42 48 42 23 26 32 61 55 58 55 61 58
74 84 81 94 90 84 81 81 74 74 68 74 68 61 61 65 68 68 61 68 58 55 55 52 48 48 48 39 42 39 35 52 35 6 19 19 32 55 42 48 48 55 48
65 81 77 90 90 87 81 81 81 74 68 61 58 58 58 61 65 55 55 52 58 52 48 52 52 52 52 45 45 39 39 52 29 10 6 23 45 61 42 42 52 52 42
68 74 81 90 87 84 84 81 77 74 71 68 58 55 55 65 58 48 48 55 48 45 48 48 55 58 48 42 45 39 39 45 26 3 6 29 58 61 52 45 48 55 52
55 71 77 81 84 87 84 81 77 68 65 65 65 58 58 58 52 48 52 48 39 42 42 45 55 52 45 42 42 42 42 48 13 6 6 23 58 61 48 48 52 52 48
48 71 77 74 84 84 77 81 74 68 65 65 65 65 61 61 55 55 52 45 39 42 42 42 52 48 52 42 42 42 52 42 10 6 16 19 42 39 32 35 35 42 45
52 65 65 71 74 71 68 68 71 71 68 65 68 65 61 61 52 52 48 61 45 45 42 45 45 45 48 48 52 52 39 13 6 10 23 35 48 35 32 32 32 35 35
48 58 65 61 71 68 68 71 68 61 65 65 65 68 71 71 65 45 68 58 55 48 52 52 52 48 29 19 26 32 19 13 10 10 16 35 39 39 35 39 35 32 29
55 61 58 58 71 68 71 71 68 68 68 68 74 74 77 65 58 58 48 52 52 42 32 39 35 29 29 26 26 16 10 10 6 6 16 39 35 35 32 32 32 32 26
48 52 55 58 68 74 71 68 68 65 68 68 74 68 71 68 65 58 58 55 55 52 48 48 35 32 26 19 19 23 10 23 19 6 19 39 39 32 23 23 26 23 26
61 55 58 65 71 74 77 77 68 74 68 71 74 68 71 65 61 58 55 52 48 48 42 45 39 26 35 26 16 10 16 13 13 16 16 35 39 26 23 29 23 19 16
61 65 71 68 77 77 77 77 74 68 74 61 65 68 58 68 65 55 55 52 48 45 42 35 35 32 35 26 19 23 19 13 16 23 10 19 42 42 35 26 23 23 19
68 68 74 68 74 74 77 74 71 68 61 58 61 55 58 55 65 61 58 55 48 45 39 32 19 29 39 26 35 26 23 23 23 16 19 16 23 23 29 32 32 26 19
61 71 71 55 68 71 74 71 68 61 65 61 61 55 55 55 55 58 61 52 48 45 42 45 35 32 26 26 26 23 26 23 19 23 23 23 23 16 23 32 26 23 19
65 68 65 65 71 65 65 61 65 61 61 65 65 55 55 52 48 45 48 52 42 45 45 26 45 45 32 23 19 26 16 19 29 16 19 23 13 19 16 16 19 19 19
58 55 58 58 58 65 61 61 61 61 55 55 58 58 52 48 48 42 48 42 45 42 48 39 42 39 32 29 16 6 10 16 16 16 16 16 16 10 6 6 10 10 16
52 52 55 58 65 68 61 61 61 61 61 55 58 55 48 42 42 45 32 45 45 45 42 32 32 29 32 26 26 23 13 16 16 13 16 19 13 16 10 6 10 6 6
52 52 55 55 61 58 58 61 61 55 48 39 45 45 48 42 42 29 39 42 39 45 42 35 32 35 23 26 29 19 19 26 23 13 19 16 13 16 13 10 13 13 6
48 52 52 58 55 55 58 42 48 55 52 39 42 45 45 39 35 35 32 32 32 32 29 29 32 23 19 23 26 29 16 19 23 23 19 16 19 19 19 19 16 13 10
52 52 55 58 58 58 48 48 35 35 35 42 48 39 42 32 35 35 29 29 32 32 32 26 23 26 26 23 23 23 19 26 19 19 23 23 16 23 23 13 13 10 10
48 55 55 55 58 58 52 55 52 35 39 42 48 42 35 35 29 32 35 32 35 29 29 29 32 32 32 29 19 26 19 23 16 13 6 16 10 13 16 16 10 10 16
39 45 52 55 65 65 58 52 55 52 48 42 42 39 32 32 32 35 35 35 32 26 29 29 29 29 29 32 26 29 26 19 16 16 13 16 13 10 10 10 13 13 13